Regional Weather Roundup
Issued by NWS

Home | Current Version | Previous Version | Graphics & Text | Print | Product List | Glossary On
Versions: 1 2 3 4 5 6 7 8 9 10 11 12 13 14 15 16 17 18 19 20 21 22 23 24 25 26 27 28 29 30 31 32 33 34 35 36 37 38 39 40 41 42 43 44 45 46 47 48 49 50
000
ASUS43 KLMK 071402
RWRKY
KENTUCKY REGIONAL WEATHER ROUNDUP
NATIONAL WEATHER SERVICE LOUISVILLE KY
1000 AM EDT TUE JUL 07 2015

NOTE "FAIR" INDICATES FEW OR NO CLOUDS BELOW 12,000 FEET
WITH NO SIGNIFICANT WEATHER AND/OR OBSTRUCTIONS TO VISIBILITY.

KYZ001>023-026-027-061>063-070>075-071500-
WESTERN AND SOUTH CENTRAL KENTUCKY

CITY           SKY/WX    TMP DP  RH WIND       PRES   REMARKS
PADUCAH        PTSUNNY   78  74  87 SW10      29.98R
HENDERSON      CLOUDY    73  70  88 S12G17    29.96R
OWENSBORO      LGT RAIN  74  73  96 S10       29.99S
HOPKINSVILLE   CLOUDY    76  73  88 SW10      30.03F
BOWLING GREEN  CLOUDY    78  71  79 NW7       30.07R
GLASGOW        NOT AVBL
$$

KYZ024-025-028>034-038-045-046-053-071500-
NORTH CENTRAL KENTUCKY

CITY           SKY/WX    TMP DP  RH WIND       PRES   REMARKS
LOUISVILLE/SDF CLOUDY    79  71  76 SW16G23   30.00R
LOUISVILLE/LOU CLOUDY    79  71  76 SW12      30.01R
FORT KNOX      CLOUDY    77  71  81 S16G24    30.00S
$$

KYZ035>037-039>044-047>052-055>060-089>105-071500-
NORTHEAST KENTUCKY

CITY           SKY/WX    TMP DP  RH WIND       PRES   REMARKS
LEXINGTON      CLOUDY    77  71  82 SW13      30.05S
COVINGTON      CLOUDY    77  72  84 SW10G16   30.00S
FRANKFORT      CLOUDY    78  71  79 SW14      30.03R
$$

KYZ054-064>069-076>088-106>120-071500-
SOUTHEAST KENTUCKY

CITY           SKY/WX    TMP DP  RH WIND       PRES   REMARKS
JACKSON        CLOUDY    75  69  81 MISG      30.12R
LONDON         PTSUNNY   78  68  71 S13       30.12S
SOMERSET       NOT AVBL
MIDDLESBORO    PTSUNNY   75  70  84 S5        30.15S
MONTICELLO     MOSUNNY   80  73  79 SW10      30.13R
$$



USA.gov is the U.S. government's official web portal to all federal, state and local government web resources and services.